This demonstration page uses our WeatherBlox Daily Observations layout. Learn more.

41.55636, -103.73856

Hourly Observations for October 5, 2016

Temp ( °F °C ) Dew Point ( °F °C ) Humidity (%) Winds ( mph kmh ) Pressure ( in mb ) Visibility ( mi km ) Precip ( " mm )
12:53 am 00:53 Clear 40 4.4 33 0.6 77 77 W 3 6 29.84 1011 10 16.0934 0 0
1:53 am 01:53 Clear 37 2.8 31 -0.6 79 79 Calm 29.85 1011 10 16.0934 0 0
2:53 am 02:53 Clear 36 2.2 30 -1.1 79 79 Calm 29.85 1011 10 16.0934 0 0
3:53 am 03:53 Clear 32 0 28 -2.2 85 85 NE 3 6 29.87 1011 10 16.0934 0 0
4:53 am 04:53 Clear 33 0.6 29 -1.7 85 85 E 6 9 29.87 1012 10 16.0934 0 0
5:53 am 05:53 Mostly Cloudy 34 1.1 31 -0.6 89 89 Calm 29.88 1012 10 16.0934 0 0
6:53 am 06:53 Cloudy 36 2.2 32 0 86 86 SSE 3 6 29.89 1012 10 16.0934 0 0
7:53 am 07:53 Cloudy 39 3.9 34 1.1 82 82 SE 7 11 29.9 1012 10 16.0934 0 0.0254
8:53 am 08:53 Mostly Cloudy 44 6.7 35 1.7 71 71 ESE 3 6 29.91 1013 10 16.0934 0 0
9:53 am 09:53 Sunny 50 10 33 0.6 52 52 VRB 3 6 29.9 1013 10 16.0934 0 0
10:53 am 10:53 Sunny 60 15.6 29 -1.7 31 31 SSW 7 11 29.86 1011 10 16.0934 0 0
11:53 am 11:53 Mostly Cloudy 62 16.7 23 -5 22 22 WSW 12 19 29.85 1011 10 16.0934 0 0
12:53 pm 12:53 Partly Cloudy 62 16.7 21 -6.1 21 21 SW 8 13 29.84 1011 10 16.0934 0 0
1:53 pm 13:53 Mostly Cloudy 66 18.9 21 -6.1 18 18 WSW 15 24 29.81 1010 10 16.0934 0 0
2:53 pm 14:53 Mostly Sunny 65 18.3 20 -6.7 18 18 WSW 6 9 29.82 1010 10 16.0934 0 0
3:53 pm 15:53 Partly Cloudy 67 19.4 20 -6.7 17 17 W 12 19 29.82 1010 10 16.0934 0 0
4:53 pm 16:53 Cloudy 64 17.8 20 -6.7 18 18 S 7 11 29.84 1010 10 16.0934 0 0
5:53 pm 17:53 Cloudy with Light Rain 60 15.6 27 -2.8 28 28 ESE 8 13 29.88 1012 10 16.0934 0 0.0254
6:45 pm 18:45 Mostly Cloudy 59 15 26 -3.3 28 28 WNW 14 22 29.83 1010 10 16.0934 0 0.0254
6:53 pm 18:53 Mostly Cloudy 59 15 26 -3.3 28 28 W 9 15 29.91 1013 10 16.0934 0 0.0254
7:53 pm 19:53 Partly Cloudy 53 11.7 29 -1.7 40 40 NW 8 13 29.94 1014 10 16.0934 0 0
8:53 pm 20:53 Mostly Cloudy 53 11.7 30 -1.1 41 41 NNE 6 9 29.95 1014 10 16.0934 0 0
9:53 pm 21:53 Mostly Clear 47 8.3 31 -0.6 54 54 Calm 29.97 1015 10 16.0934 0 0
10:53 pm 22:53 Clear 45 7.2 32 0 61 61 N 9 15 29.93 1014 10 16.0934 0 0
11:53 pm 23:53 Clear 48 8.9 33 0.6 56 56 E 12 19 29.95 1014 10 16.0934 0 0

Powered by AerisWeather